Time,TemperatureF,DewpointF,PressureIn,WindDirection,WindDirectionDegrees,WindSpeedMPH,WindSpeedGustMPH,Humidity,HourlyPrecipIn,Conditions,Clouds,dailyrainin,SoftwareType,DateUTC
2013-01-16 00:01:00,40.6,37.0,30.17,ESE,108,1.0,-999.0,85,-99.99,,,0.00,weatherlink.com 1.10,2013-01-16 05:01:00,
2013-01-16 00:16:00,40.6,37.0,30.17,East,98,0.0,-999.0,85,-99.99,,,0.01,weatherlink.com 1.10,2013-01-16 05:16:00,
2013-01-16 00:31:00,40.6,37.0,30.16,East,98,0.0,-999.0,85,-99.99,,,0.02,weatherlink.com 1.10,2013-01-16 05:31:00,
2013-01-16 00:46:00,40.7,37.0,30.16,East,98,0.0,-999.0,85,-99.99,,,0.02,weatherlink.com 1.10,2013-01-16 05:46:00,
2013-01-16 01:01:00,40.8,37.0,30.16,East,98,0.0,-999.0,85,-99.99,,,0.03,weatherlink.com 1.10,2013-01-16 06:01:00,
2013-01-16 01:16:00,40.8,37.0,30.16,East,98,0.0,-999.0,85,-99.99,,,0.04,weatherlink.com 1.10,2013-01-16 06:16:00,
2013-01-16 01:31:00,40.8,37.0,30.16,East,98,0.0,-999.0,85,-99.99,,,0.05,weatherlink.com 1.10,2013-01-16 06:31:00,
2013-01-16 02:01:00,40.9,37.0,30.15,East,98,0.0,-999.0,85,-99.99,,,0.06,weatherlink.com 1.10,2013-01-16 07:01:00,
2013-01-16 02:17:00,40.9,37.0,30.15,East,98,1.0,-999.0,85,-99.99,,,0.06,weatherlink.com 1.10,2013-01-16 07:17:00,
2013-01-16 02:32:00,40.9,37.0,30.15,East,98,0.0,-999.0,85,-99.99,,,0.06,weatherlink.com 1.10,2013-01-16 07:32:00,
2013-01-16 02:47:00,41.0,37.0,30.15,East,98,0.0,-999.0,85,-99.99,,,0.06,weatherlink.com 1.10,2013-01-16 07:47:00,
2013-01-16 03:02:00,41.0,37.0,30.14,East,98,0.0,-999.0,85,-99.99,,,0.08,weatherlink.com 1.10,2013-01-16 08:02:00,
2013-01-16 03:17:00,41.0,37.0,30.15,ENE,78,0.0,-999.0,85,-99.99,,,0.08,weatherlink.com 1.10,2013-01-16 08:17:00,
2013-01-16 03:32:00,41.0,37.0,30.15,ENE,77,0.0,-999.0,85,-99.99,,,0.09,weatherlink.com 1.10,2013-01-16 08:32:00,
2013-01-16 03:47:00,41.0,37.0,30.14,ENE,78,0.0,-999.0,85,-99.99,,,0.10,weatherlink.com 1.10,2013-01-16 08:47:00,
2013-01-16 04:02:00,40.9,37.0,30.13,ENE,71,0.0,-999.0,85,-99.99,,,0.10,weatherlink.com 1.10,2013-01-16 09:02:00,
2013-01-16 04:17:00,40.9,37.0,30.12,ENE,60,1.0,-999.0,85,-99.99,,,0.11,weatherlink.com 1.10,2013-01-16 09:17:00,
2013-01-16 04:32:00,40.6,37.0,30.12,ENE,69,0.0,-999.0,85,-99.99,,,0.11,weatherlink.com 1.10,2013-01-16 09:32:00,
2013-01-16 04:47:00,40.5,36.0,30.11,ENE,68,0.0,-999.0,85,-99.99,,,0.11,weatherlink.com 1.10,2013-01-16 09:47:00,
2013-01-16 05:03:00,40.4,36.0,30.12,NE,50,0.0,-999.0,85,-99.99,,,0.12,weatherlink.com 1.10,2013-01-16 10:03:00,
2013-01-16 05:18:00,40.3,36.0,30.13,NE,50,0.0,-999.0,85,-99.99,,,0.13,weatherlink.com 1.10,2013-01-16 10:18:00,
2013-01-16 05:33:00,40.3,36.0,30.12,NE,50,0.0,-999.0,85,-99.99,,,0.13,weatherlink.com 1.10,2013-01-16 10:33:00,
2013-01-16 05:48:00,40.4,36.0,30.11,ESE,103,0.0,-999.0,85,-99.99,,,0.13,weatherlink.com 1.10,2013-01-16 10:48:00,
2013-01-16 06:03:00,40.4,36.0,30.11,ENE,61,0.0,-999.0,85,-99.99,,,0.14,weatherlink.com 1.10,2013-01-16 11:03:00,
2013-01-16 06:18:00,40.4,36.0,30.11,ENE,61,0.0,-999.0,85,-99.99,,,0.14,weatherlink.com 1.10,2013-01-16 11:18:00,
2013-01-16 06:33:00,40.4,37.0,30.11,ENE,61,0.0,-999.0,86,-99.99,,,0.14,weatherlink.com 1.10,2013-01-16 11:33:00,
2013-01-16 06:48:00,40.4,37.0,30.12,ENE,61,0.0,-999.0,86,-99.99,,,0.14,weatherlink.com 1.10,2013-01-16 11:48:00,
2013-01-16 07:03:00,40.5,37.0,30.12,ENE,61,0.0,-999.0,86,-99.99,,,0.14,weatherlink.com 1.10,2013-01-16 12:03:00,
2013-01-16 07:18:00,40.5,37.0,30.12,ENE,61,0.0,-999.0,86,-99.99,,,0.14,weatherlink.com 1.10,2013-01-16 12:18:00,
2013-01-16 07:33:00,40.5,36.0,30.12,ENE,61,0.0,-999.0,85,-99.99,,,0.14,weatherlink.com 1.10,2013-01-16 12:33:00,
2013-01-16 07:48:00,40.5,36.0,30.12,ENE,61,0.0,-999.0,85,-99.99,,,0.14,weatherlink.com 1.10,2013-01-16 12:48:00,
2013-01-16 08:03:00,40.5,36.0,30.12,ENE,61,1.0,-999.0,85,-99.99,,,0.15,weatherlink.com 1.10,2013-01-16 13:03:00,
2013-01-16 08:19:00,40.5,36.0,30.13,ENE,61,1.0,-999.0,85,-99.99,,,0.19,weatherlink.com 1.10,2013-01-16 13:19:00,
2013-01-16 08:34:00,40.6,37.0,30.14,ENE,61,0.0,-999.0,85,-99.99,,,0.24,weatherlink.com 1.10,2013-01-16 13:34:00,
2013-01-16 08:49:00,40.7,37.0,30.16,ENE,61,0.0,-999.0,85,-99.99,,,0.28,weatherlink.com 1.10,2013-01-16 13:49:00,
2013-01-16 09:04:00,40.9,37.0,30.14,ENE,61,1.0,-999.0,86,-99.99,,,0.33,weatherlink.com 1.10,2013-01-16 14:04:00,
2013-01-16 09:19:00,41.1,37.0,30.14,ENE,61,0.0,-999.0,86,-99.99,,,0.37,weatherlink.com 1.10,2013-01-16 14:19:00,
2013-01-16 09:34:00,41.2,37.0,30.15,ENE,61,0.0,-999.0,86,-99.99,,,0.39,weatherlink.com 1.10,2013-01-16 14:34:00,
2013-01-16 09:49:00,41.7,38.0,30.15,ENE,61,0.0,-999.0,86,-99.99,,,0.39,weatherlink.com 1.10,2013-01-16 14:49:00,
2013-01-16 10:04:00,41.9,38.0,30.16,ENE,61,0.0,-999.0,86,-99.99,,,0.39,weatherlink.com 1.10,2013-01-16 15:04:00,
2013-01-16 10:19:00,42.1,38.0,30.17,ENE,61,0.0,-999.0,86,-99.99,,,0.39,weatherlink.com 1.10,2013-01-16 15:19:00,
2013-01-16 10:34:00,42.2,38.0,30.16,NNE,27,0.0,-999.0,86,-99.99,,,0.39,weatherlink.com 1.10,2013-01-16 15:34:00,
2013-01-16 10:49:00,42.3,38.0,30.15,NNE,27,0.0,-999.0,86,-99.99,,,0.41,weatherlink.com 1.10,2013-01-16 15:49:00,
2013-01-16 11:04:00,42.5,39.0,30.16,NNE,27,0.0,-999.0,86,-99.99,,,0.41,weatherlink.com 1.10,2013-01-16 16:04:00,
2013-01-16 11:19:00,42.6,39.0,30.15,NNE,14,0.0,-999.0,86,-99.99,,,0.42,weatherlink.com 1.10,2013-01-16 16:19:00,
2013-01-16 11:35:00,43.0,39.0,30.13,NNE,19,0.0,-999.0,86,-99.99,,,0.42,weatherlink.com 1.10,2013-01-16 16:35:00,
2013-01-16 11:50:00,43.2,39.0,30.12,NNE,19,0.0,-999.0,86,-99.99,,,0.42,weatherlink.com 1.10,2013-01-16 16:50:00,
2013-01-16 12:08:00,43.4,40.0,30.10,NE,51,1.0,-999.0,86,-99.99,,,0.42,weatherlink.com 1.10,2013-01-16 17:08:00,
2013-01-16 12:20:00,43.9,40.0,30.11,SSE,162,0.0,-999.0,86,-99.99,,,0.42,weatherlink.com 1.10,2013-01-16 17:20:00,
2013-01-16 12:35:00,44.2,40.0,30.10,SSE,162,0.0,-999.0,86,-99.99,,,0.42,weatherlink.com 1.10,2013-01-16 17:35:00,
2013-01-16 12:50:00,44.5,41.0,30.09,SSE,162,0.0,-999.0,86,-99.99,,,0.42,weatherlink.com 1.10,2013-01-16 17:50:00,
2013-01-16 13:05:00,44.6,41.0,30.09,ESE,107,0.0,-999.0,86,-99.99,,,0.42,weatherlink.com 1.10,2013-01-16 18:05:00,
2013-01-16 13:20:00,44.6,41.0,30.07,ESE,107,0.0,-999.0,86,-99.99,,,0.42,weatherlink.com 1.10,2013-01-16 18:20:00,
2013-01-16 13:35:00,44.8,41.0,30.08,ESE,107,0.0,-999.0,86,-99.99,,,0.42,weatherlink.com 1.10,2013-01-16 18:35:00,
2013-01-16 13:50:00,45.0,41.0,30.09,ESE,107,0.0,-999.0,86,-99.99,,,0.42,weatherlink.com 1.10,2013-01-16 18:50:00,
2013-01-16 14:05:00,45.0,41.0,30.08,North,353,0.0,-999.0,86,-99.99,,,0.42,weatherlink.com 1.10,2013-01-16 19:05:00,
2013-01-16 14:21:00,45.4,42.0,30.07,North,353,0.0,-999.0,86,-99.99,,,0.42,weatherlink.com 1.10,2013-01-16 19:21:00,
2013-01-16 14:36:00,46.0,42.0,30.06,North,353,0.0,-999.0,86,-99.99,,,0.42,weatherlink.com 1.10,2013-01-16 19:36:00,
2013-01-16 14:51:00,46.3,42.0,30.06,North,353,0.0,-999.0,86,-99.99,,,0.42,weatherlink.com 1.10,2013-01-16 19:51:00,
2013-01-16 15:06:00,46.1,42.0,30.08,WNW,294,0.0,-999.0,86,-99.99,,,0.42,weatherlink.com 1.10,2013-01-16 20:06:00,
2013-01-16 15:21:00,46.3,42.0,30.10,WNW,294,0.0,-999.0,86,-99.99,,,0.42,weatherlink.com 1.10,2013-01-16 20:21:00,
2013-01-16 15:36:00,46.4,43.0,30.09,WNW,296,1.0,-999.0,86,-99.99,,,0.42,weatherlink.com 1.10,2013-01-16 20:36:00,
2013-01-16 15:51:00,46.5,43.0,30.10,WNW,296,0.0,-999.0,86,-99.99,,,0.42,weatherlink.com 1.10,2013-01-16 20:51:00,
2013-01-16 16:21:00,46.6,43.0,30.10,WNW,296,0.0,-999.0,86,-99.99,,,0.42,weatherlink.com 1.10,2013-01-16 21:21:00,
2013-01-16 16:36:00,46.7,43.0,30.10,WNW,296,0.0,-999.0,86,-99.99,,,0.42,weatherlink.com 1.10,2013-01-16 21:36:00,
2013-01-16 16:51:00,46.8,43.0,30.10,WNW,296,0.0,-999.0,86,-99.99,,,0.42,weatherlink.com 1.10,2013-01-16 21:51:00,
2013-01-16 17:07:00,46.9,43.0,30.10,WNW,296,0.0,-999.0,86,-99.99,,,0.42,weatherlink.com 1.10,2013-01-16 22:07:00,
2013-01-16 17:22:00,46.9,43.0,30.09,WNW,296,0.0,-999.0,86,-99.99,,,0.42,weatherlink.com 1.10,2013-01-16 22:22:00,
2013-01-16 17:37:00,46.9,43.0,30.10,WNW,296,0.0,-999.0,86,-99.99,,,0.42,weatherlink.com 1.10,2013-01-16 22:37:00,
2013-01-16 17:52:00,46.8,43.0,30.10,WNW,296,0.0,-999.0,86,-99.99,,,0.42,weatherlink.com 1.10,2013-01-16 22:52:00,
2013-01-16 18:07:00,46.8,43.0,30.10,WNW,296,0.0,-999.0,86,-99.99,,,0.42,weatherlink.com 1.10,2013-01-16 23:07:00,
2013-01-16 18:22:00,46.8,43.0,30.10,WNW,296,0.0,-999.0,86,-99.99,,,0.42,weatherlink.com 1.10,2013-01-16 23:22:00,
2013-01-16 18:37:00,46.8,43.0,30.09,WNW,296,0.0,-999.0,86,-99.99,,,0.42,weatherlink.com 1.10,2013-01-16 23:37:00,
2013-01-16 18:52:00,46.8,43.0,30.10,WNW,296,0.0,-999.0,86,-99.99,,,0.42,weatherlink.com 1.10,2013-01-16 23:52:00,
2013-01-16 19:07:00,46.8,43.0,30.10,WNW,296,0.0,-999.0,86,-99.99,,,0.42,weatherlink.com 1.10,2013-01-17 00:07:00,
2013-01-16 19:37:00,46.9,43.0,30.09,WNW,296,0.0,-999.0,86,-99.99,,,0.42,weatherlink.com 1.10,2013-01-17 00:37:00,
2013-01-16 19:52:00,46.9,43.0,30.09,WNW,296,0.0,-999.0,86,-99.99,,,0.42,weatherlink.com 1.10,2013-01-17 00:52:00,
2013-01-16 20:07:00,46.9,43.0,30.10,WNW,296,0.0,-999.0,86,-99.99,,,0.42,weatherlink.com 1.10,2013-01-17 01:07:00,
2013-01-16 20:22:00,46.9,43.0,30.10,WNW,296,0.0,-999.0,86,-99.99,,,0.42,weatherlink.com 1.10,2013-01-17 01:22:00,
2013-01-16 20:38:00,46.9,43.0,30.10,WNW,296,0.0,-999.0,86,-99.99,,,0.42,weatherlink.com 1.10,2013-01-17 01:38:00,
2013-01-16 20:53:00,46.9,43.0,30.10,WNW,296,0.0,-999.0,86,-99.99,,,0.42,weatherlink.com 1.10,2013-01-17 01:53:00,
2013-01-16 21:08:00,46.9,43.0,30.08,WNW,296,0.0,-999.0,86,-99.99,,,0.42,weatherlink.com 1.10,2013-01-17 02:08:00,
2013-01-16 21:23:00,46.9,43.0,30.08,WNW,296,0.0,-999.0,86,-99.99,,,0.42,weatherlink.com 1.10,2013-01-17 02:23:00,
2013-01-16 21:38:00,46.9,43.0,30.09,WNW,296,0.0,-999.0,86,-99.99,,,0.42,weatherlink.com 1.10,2013-01-17 02:38:00,
2013-01-16 21:53:00,46.9,43.0,30.09,WNW,296,0.0,-999.0,86,-99.99,,,0.42,weatherlink.com 1.10,2013-01-17 02:53:00,
2013-01-16 22:08:00,47.0,43.0,30.09,WNW,296,0.0,-999.0,86,-99.99,,,0.42,weatherlink.com 1.10,2013-01-17 03:08:00,
2013-01-16 22:23:00,47.0,43.0,30.10,WNW,296,0.0,-999.0,86,-99.99,,,0.42,weatherlink.com 1.10,2013-01-17 03:23:00,
2013-01-16 22:38:00,47.1,43.0,30.09,WNW,296,0.0,-999.0,86,-99.99,,,0.42,weatherlink.com 1.10,2013-01-17 03:38:00,
2013-01-16 22:53:00,47.2,43.0,30.09,WNW,296,0.0,-999.0,86,-99.99,,,0.43,weatherlink.com 1.10,2013-01-17 03:53:00,
2013-01-16 23:08:00,47.2,43.0,30.09,WNW,296,0.0,-999.0,86,-99.99,,,0.44,weatherlink.com 1.10,2013-01-17 04:08:00,
2013-01-16 23:23:00,47.3,43.0,30.08,WNW,296,0.0,-999.0,86,-99.99,,,0.45,weatherlink.com 1.10,2013-01-17 04:23:00,
2013-01-16 23:38:00,47.4,43.0,30.08,WNW,296,0.0,-999.0,86,-99.99,,,0.46,weatherlink.com 1.10,2013-01-17 04:38:00,
2013-01-16 23:54:00,47.4,43.0,30.08,WNW,296,0.0,-999.0,86,-99.99,,,0.49,weatherlink.com 1.10,2013-01-17 04:54:00,